Lexington Weather

Lexington, Massachusetts, USA

45°F
4/22/2024 9:37am 
  • Lexington Conditions: Clear
  • Temperature: 45.0°F / 7.2°CWarmer 2.0°F than last hour.
  • Dew Point: 24.4°FDecreased 2.6°Fsince last hour.
  • Relative Humidity: 44%Decreased 9.0% since last hour.
  • Wind: Calm, 10-min avg: Calm, gust: 1 mph
  • Barometer: 29.97 in Steady
  • Visibility: 10 miles
  • Rain Today: 0.00 in
  •   

Regional Weather Roundup
for Boston, MA

        
000
ASUS41 KBOX 191310
RWRBOX

REGIONAL WEATHER ROUNDUP
NATIONAL WEATHER SERVICE BOSTON/NORTON MA
900 AM EDT FRI APR 19 2024

NOTE:  "FAIR" INDICATES FEW OR NO CLOUDS BELOW 12,000 FEET WITH NO 
SIGNIFICANT WEATHER AND/OR OBSTRUCTIONS TO VISIBILITY.

MAZALL-191400-
EASTERN MASSACHUSETTS
  
CITY           SKY/WX    TMP DP  RH WIND       PRES   REMARKS
BOSTON         PTSUNNY   46  41  82 E7        30.22F                  
BEVERLY        CLOUDY    46  40  79 SE5       30.21F                  
LAWRENCE       CLOUDY    47  37  68 VRB3      30.22F                  
BEDFORD        CLOUDY    46  40  79 SE3       30.20F                  
NORWOOD        CLOUDY    50  39  66 CALM      30.21F                  
MARSHFIELD     CLOUDY    46  41  81 NE5       30.22S                  
PLYMOUTH       CLOUDY    49  41  74 NE5       30.20F                  
TAUNTON        CLOUDY    49  41  74 MISG      30.21F                  
NEW BEDFORD    CLOUDY    48  41  76 NE7       30.20F                  
$$

MAZALL-191400-
CAPE COD AND THE ISLANDS
  
CITY           SKY/WX    TMP DP  RH WIND       PRES   REMARKS
FALMOUTH       PTSUNNY   46  39  76 E6        30.20F                  
HYANNIS        CLOUDY    46  40  79 NE3       30.20S                  
CHATHAM        CLOUDY    47  38  71 E6        30.21S                  
PROVINCETOWN   CLOUDY    47  42  83 NE7       30.22F                  
NANTUCKET      CLOUDY    47  42  83 E10       30.19S                  
MARTHAS VNYRD  CLOUDY    47  43  86 NE12      30.20S                  
$$
 
MAZALL-191400-
CENTRAL AND WESTERN MASSACHUSETTS
  
CITY           SKY/WX    TMP DP  RH WIND       PRES   REMARKS
WORCESTER      CLOUDY    45  36  70 E7        30.16F                  
FITCHBURG      CLOUDY    47  38  71 SE8       30.19F                  
ORANGE         CLOUDY    46  37  71 SE3       30.18F                  
SPRINGFIELD    PTSUNNY   50  39  65 E6        30.15F                  
WESTFIELD      CLOUDY    49  38  65 E6        30.17F                  
NORTH ADAMS    CLOUDY    48  32  53 E18G30    30.14F                  
PITTSFIELD     CLOUDY    44  32  62 E3        30.12F                  
$$
 
RIZALL-191400-
RHODE ISLAND
  
CITY           SKY/WX    TMP DP  RH WIND       PRES   REMARKS
PROVIDENCE     PTSUNNY   46  42  86 E5        30.21F                  
NEWPORT        CLOUDY    46  41  82 NE6       30.20S                  
BLOCK ISLAND   CLOUDY    45  42  89 NE8       30.20F                  
SMITHFIELD     CLOUDY    47  41  80 E7        30.19F                  
WESTERLY       PTSUNNY   49  41  74 E8        30.18F                  
$$
 
CTZALL-191400-
CONNECTICUT
  
CITY           SKY/WX    TMP DP  RH WIND       PRES   REMARKS
BRADLEY INTL   PTSUNNY   50  38  63 CALM      30.18F                  
HARTFORD       MOSUNNY   48  39  71 VRB5      30.18F                  
PLAINVILLE     PTSUNNY   48  40  74 CALM      30.18S                  
BRIDGEPORT     CLOUDY    48  40  73 E12       30.18S                  
DANBURY        CLOUDY    49  38  65 SE6       30.16F                  
GROTON         CLOUDY    49  39  68 E8        30.18F                  
NEW HAVEN      CLOUDY    51  41  68 E8        30.18F                  
CHESTER        PTSUNNY   48  39  71 CALM      30.18S                  
MERIDEN        CLOUDY    49  37  63 CALM      30.18F                  
WILLIMANTIC    MOSUNNY   47  39  74 CALM      30.18F                  
OXFORD         CLOUDY    46  38  73 SE7       30.17S                  
$$

MEZ002-015-021-024-NHZ003-005-008-011-012-014-VTZ005-008-191400-
NORTHERN NEW ENGLAND
  
CITY           SKY/WX    TMP DP  RH WIND       PRES   REMARKS
PORTLAND ME    CLOUDY    47  36  65 S5        30.22S                  
BANGOR ME      MOSUNNY   50  34  54 S6        30.22F                  
CONCORD NH     CLOUDY    45  41  86 SE3       30.19F                  
MANCHESTER NH  CLOUDY    47  41  80 S7        30.19F                  
NASHUA NH      CLOUDY    46  43  89 CALM      30.21F                  
PORTSMOUTH NH  CLOUDY    47  38  71 E3        30.20F                  
JAFFREY NH     CLOUDY    47  37  68 VRB6      30.15F                  
KEENE NH       PTSUNNY   46  39  76 SW5       30.17F                  
BURLINGTON VT  PTSUNNY   48  36  63 S15G24    30.08F                  
MT. WASHINGTON FOG       34  34 100 SW9         N/A  VSB 1/16WCI  26  
$$

NYZ052-076-191400-
EASTERN NEW YORK
  
CITY           SKY/WX    TMP DP  RH WIND       PRES   REMARKS
ALBANY         PTSUNNY   49  35  58 SE9       30.13F                  
NEW YORK CITY  PTSUNNY   49  37  63 E8        30.15F                  
$$
 
ANZALL-191400-
MARINE OBSERVATIONS
  
STATION/POSITION TIME  TEMP    WIND        PRES    VSBY  WAVE
                       AIR SEA DIR/SP/G                  HT/PER
                 (UTC) (F)     (DEG/KT/KT) (MB)    (MI)  (FT/S)
BOSTON BUOY      1250   44     100/  6/  6 1022.9F         2/11
BUZZARDS BAY     1200   44      40/ 10/ 11 1023.1R
NANTUCKET SOUND  1250   46 47   70/ 10/ 12 1022.4R         2/ 3
MASS BAY-STELLWA 1104   44 45   80/  6/  6 1023.1R  1 7/8  2/11
ISLE OF SHOALS   1200   45     190/  2/  2 1023.1R
S OF BLOCK IS    1226      44                N/A           6/ 7
$$

......................KEY.........................
  SKY/WX - SKY CONDITION/PRESENT WEATHER
  TMP    - TEMPERATURE IN FAHRENHEIT
  DWPT   - DEWPOINT IN FAHRENHEIT
  RH     - RELATIVE HUMIDITY IN PERCENT
  WIND   - DIRECTION AND SPEED IN MPH
  PRES   - MEAN SEA LEVEL PRESSURE IN INCHES OF HG
  WCI    - WIND CHILL INDEX
  VSB    - VISIBILITY IN MILES
  HX     - HEAT INDEX
  TC     - TEMPERATURE IN CELSIUS
  VRB    - VARIABLE WIND DIRECTION
  N/A    - NOT AVAILABLE
  
      

Other recent Regional Weather Roundups

Mon Apr 22, 9:10am EDT

Mon Apr 22, 8:10am EDT

Mon Apr 22, 7:10am EDT

Mon Apr 22, 6:10am EDT

Mon Apr 22, 5:10am EDT

Mon Apr 22, 4:10am EDT

Mon Apr 22, 3:10am EDT

Mon Apr 22, 2:10am EDT

Mon Apr 22, 1:10am EDT

Mon Apr 22, 12:10am EDT

Sun Apr 21, 11:10pm EDT

Sun Apr 21, 10:10pm EDT

Sun Apr 21, 9:10pm EDT

Sun Apr 21, 8:10pm EDT

Sun Apr 21, 7:10pm EDT

Sun Apr 21, 6:10pm EDT

Sun Apr 21, 5:10pm EDT

Sun Apr 21, 4:10pm EDT

Sun Apr 21, 3:10pm EDT

Sun Apr 21, 2:10pm EDT

Sun Apr 21, 1:10pm EDT

Sun Apr 21, 12:10pm EDT

Sun Apr 21, 11:10am EDT

Sun Apr 21, 10:10am EDT

Sun Apr 21, 9:10am EDT

Sun Apr 21, 8:10am EDT

Sun Apr 21, 7:10am EDT

Sun Apr 21, 6:10am EDT

Sun Apr 21, 5:10am EDT

Sun Apr 21, 4:10am EDT

Sun Apr 21, 3:10am EDT

Sun Apr 21, 2:10am EDT

Sun Apr 21, 1:10am EDT

Sun Apr 21, 12:10am EDT

Sat Apr 20, 11:10pm EDT

Sat Apr 20, 10:10pm EDT

Sat Apr 20, 9:10pm EDT

Sat Apr 20, 8:10pm EDT

Sat Apr 20, 7:10pm EDT

Sat Apr 20, 6:10pm EDT

Sat Apr 20, 5:10pm EDT

Sat Apr 20, 4:10pm EDT

Sat Apr 20, 3:10pm EDT

Sat Apr 20, 2:10pm EDT

Sat Apr 20, 1:10pm EDT

Sat Apr 20, 12:10pm EDT

Sat Apr 20, 11:10am EDT

Sat Apr 20, 10:10am EDT

Sat Apr 20, 9:10am EDT

Sat Apr 20, 8:10am EDT

Sat Apr 20, 7:10am EDT

Sat Apr 20, 6:10am EDT

Sat Apr 20, 5:10am EDT

Sat Apr 20, 4:10am EDT

Sat Apr 20, 3:10am EDT

Sat Apr 20, 2:10am EDT

Sat Apr 20, 1:10am EDT

Sat Apr 20, 12:10am EDT

Fri Apr 19, 11:10pm EDT

Fri Apr 19, 10:10pm EDT

Fri Apr 19, 9:10pm EDT

Fri Apr 19, 8:10pm EDT

Fri Apr 19, 7:10pm EDT

Fri Apr 19, 6:10pm EDT

Fri Apr 19, 5:10pm EDT

Fri Apr 19, 4:10pm EDT

Fri Apr 19, 3:10pm EDT

Fri Apr 19, 2:10pm EDT

Fri Apr 19, 1:10pm EDT

Fri Apr 19, 12:10pm EDT

Fri Apr 19, 11:10am EDT

Fri Apr 19, 10:10am EDT

Fri Apr 19, 8:10am EDT

Fri Apr 19, 7:10am EDT

Fri Apr 19, 6:10am EDT

Fri Apr 19, 5:10am EDT

Fri Apr 19, 4:10am EDT

Fri Apr 19, 3:10am EDT

Fri Apr 19, 2:10am EDT

Fri Apr 19, 1:10am EDT

Fri Apr 19, 12:10am EDT

Thu Apr 18, 11:10pm EDT

Thu Apr 18, 10:10pm EDT

Thu Apr 18, 9:10pm EDT

Thu Apr 18, 8:10pm EDT

Thu Apr 18, 7:10pm EDT

Thu Apr 18, 6:10pm EDT

Thu Apr 18, 5:10pm EDT

Thu Apr 18, 4:10pm EDT

Thu Apr 18, 3:10pm EDT

Thu Apr 18, 2:10pm EDT

Thu Apr 18, 1:10pm EDT

Thu Apr 18, 12:10pm EDT

Thu Apr 18, 11:10am EDT

Thu Apr 18, 10:10am EDT

Thu Apr 18, 9:10am EDT

Thu Apr 18, 8:10am EDT

Thu Apr 18, 7:10am EDT

Thu Apr 18, 6:10am EDT

Thu Apr 18, 5:10am EDT

Thu Apr 18, 4:10am EDT

Thu Apr 18, 3:10am EDT

Thu Apr 18, 2:10am EDT

Thu Apr 18, 1:10am EDT

Thu Apr 18, 12:10am EDT

Wed Apr 17, 11:10pm EDT

Wed Apr 17, 10:10pm EDT

Wed Apr 17, 9:10pm EDT

Wed Apr 17, 8:10pm EDT

Wed Apr 17, 7:10pm EDT

Wed Apr 17, 6:10pm EDT

Wed Apr 17, 5:10pm EDT

Wed Apr 17, 4:10pm EDT

Wed Apr 17, 3:10pm EDT

Wed Apr 17, 2:10pm EDT

Wed Apr 17, 1:10pm EDT

Wed Apr 17, 12:10pm EDT

Wed Apr 17, 11:10am EDT

Wed Apr 17, 10:10am EDT

Wed Apr 17, 9:10am EDT

Wed Apr 17, 8:10am EDT

Wed Apr 17, 7:10am EDT

Wed Apr 17, 6:10am EDT

Wed Apr 17, 5:10am EDT

Wed Apr 17, 4:10am EDT

Wed Apr 17, 3:10am EDT

Wed Apr 17, 2:10am EDT

Wed Apr 17, 1:10am EDT

Wed Apr 17, 12:10am EDT

Tue Apr 16, 11:10pm EDT

Tue Apr 16, 10:10pm EDT

Tue Apr 16, 9:10pm EDT

Tue Apr 16, 8:10pm EDT

Tue Apr 16, 7:10pm EDT

Tue Apr 16, 6:10pm EDT

Tue Apr 16, 5:10pm EDT

Tue Apr 16, 4:10pm EDT

Tue Apr 16, 3:10pm EDT

Tue Apr 16, 2:10pm EDT

Tue Apr 16, 1:10pm EDT

Tue Apr 16, 12:10pm EDT

Tue Apr 16, 11:10am EDT

Tue Apr 16, 10:10am EDT

Tue Apr 16, 9:10am EDT

Tue Apr 16, 8:10am EDT

Tue Apr 16, 7:10am EDT

Tue Apr 16, 6:10am EDT

Tue Apr 16, 5:10am EDT

Tue Apr 16, 4:10am EDT

Tue Apr 16, 3:10am EDT

Tue Apr 16, 2:10am EDT

Tue Apr 16, 1:10am EDT

Tue Apr 16, 12:10am EDT

Mon Apr 15, 11:10pm EDT

Mon Apr 15, 10:10pm EDT

Mon Apr 15, 9:10pm EDT

Mon Apr 15, 8:10pm EDT

Mon Apr 15, 7:10pm EDT

Mon Apr 15, 6:10pm EDT

Mon Apr 15, 5:10pm EDT

Mon Apr 15, 4:10pm EDT

Mon Apr 15, 3:10pm EDT

Mon Apr 15, 2:10pm EDT

Mon Apr 15, 1:10pm EDT

Mon Apr 15, 12:10pm EDT

Mon Apr 15, 11:10am EDT

Mon Apr 15, 10:10am EDT